Radioactive Concentration measured by Seawater Radiation Monitor near Fukushima Daiichi Nuclear Power Station
Date,Time,Cs137(Bq/L),Cs134(Bq/L),Total β(Bq/L)
2017/06/11,00:00,0.82,0.069,ND
2017/06/11,00:10,0.84,0.065,ND
2017/06/11,00:20,0.84,0.064,ND
2017/06/11,00:30,0.85,0.069,ND
2017/06/11,00:40,0.84,0.072,ND
2017/06/11,00:50,0.88,0.042,ND
2017/06/11,01:00,0.88,0.038,ND
2017/06/11,01:10,0.84,0.050,ND
2017/06/11,01:20,0.81,0.047,ND
2017/06/11,01:30,0.80,0.042,ND
2017/06/11,01:40,0.80,0.031,ND
2017/06/11,01:50,0.74,0.061,9.2
2017/06/11,02:00,0.75,0.067,10
2017/06/11,02:10,0.76,0.068,9.3
2017/06/11,02:20,0.80,0.046,11
2017/06/11,02:30,0.79,0.045,10
2017/06/11,02:40,0.78,0.050,ND
2017/06/11,02:50,0.75,0.056,ND
2017/06/11,03:00,0.74,0.055,8.8
2017/06/11,03:10,0.71,0.054,ND
2017/06/11,03:20,0.71,0.054,ND
2017/06/11,03:30,0.73,0.053,ND
2017/06/11,03:40,0.75,0.057,ND
2017/06/11,03:50,0.76,0.056,ND
2017/06/11,04:00,0.77,0.056,ND
2017/06/11,04:10,0.81,0.043,ND
2017/06/11,04:20,0.86,0.031,ND
2017/06/11,04:30,0.90,0.034,ND
2017/06/11,04:40,0.78,0.041,ND
2017/06/11,04:50,0.80,0.035,ND
2017/06/11,05:00,0.78,0.034,10
2017/06/11,05:10,0.78,0.039,9.0
2017/06/11,05:20,0.79,0.044,9.2
2017/06/11,05:30,0.81,0.038,ND
2017/06/11,05:40,0.77,0.042,ND
2017/06/11,05:50,0.76,0.042,ND
2017/06/11,06:00,0.80,0.032,ND
2017/06/11,06:10,0.76,0.039,ND
2017/06/11,06:20,0.77,0.044,ND
2017/06/11,06:30,0.75,0.049,ND
2017/06/11,06:40,0.78,0.042,ND
2017/06/11,06:50,0.80,0.040,ND
2017/06/11,07:00,0.77,0.056,8.8
2017/06/11,07:10,0.78,0.049,10
2017/06/11,07:20,0.80,0.042,9.0
2017/06/11,07:30,0.88,0.035,ND
2017/06/11,07:40,0.83,0.037,ND
2017/06/11,07:50,0.81,0.048,ND
2017/06/11,08:00,0.83,0.038,ND
2017/06/11,08:10,0.82,0.042,ND
2017/06/11,08:20,0.78,0.051,ND
2017/06/11,08:30,0.79,0.050,ND
2017/06/11,08:40,0.75,0.048,ND
2017/06/11,08:50,0.75,0.039,ND
2017/06/11,09:00,0.73,0.044,ND
2017/06/11,09:10,0.74,0.046,ND
2017/06/11,09:20,0.80,0.036,ND
2017/06/11,09:30,0.80,0.048,ND
2017/06/11,09:40,0.83,0.048,ND
2017/06/11,09:50,0.85,0.044,ND
2017/06/11,10:00,0.88,0.033,ND
2017/06/11,10:10,0.87,0.033,ND
2017/06/11,10:20,0.88,0.044,ND
2017/06/11,10:30,0.85,0.037,ND
2017/06/11,10:40,0.85,0.042,ND
2017/06/11,10:50,0.86,0.044,9.5
2017/06/11,11:00,0.86,0.050,ND
2017/06/11,11:10,0.90,0.046,ND
2017/06/11,11:20,0.93,0.041,ND
2017/06/11,11:30,0.92,0.045,11
2017/06/11,11:40,0.94,0.044,11
2017/06/11,11:50,0.93,0.042,ND
2017/06/11,12:00,0.90,0.039,9.6
2017/06/11,12:10,0.85,0.045,ND
2017/06/11,12:20,0.81,0.046,ND
2017/06/11,12:30,0.80,0.038,ND
2017/06/11,12:40,0.77,0.035,ND
2017/06/11,12:50,0.75,0.035,ND
2017/06/11,13:00,0.77,0.027,ND
2017/06/11,13:10,0.78,ND,ND
2017/06/11,13:20,0.78,ND,ND
2017/06/11,13:30,0.76,ND,ND
2017/06/11,13:40,0.71,0.030,ND
2017/06/11,13:50,0.71,0.033,ND
2017/06/11,14:00,0.71,0.033,ND
2017/06/11,14:10,0.68,0.047,ND
2017/06/11,14:20,0.75,ND,ND
2017/06/11,14:30,0.76,ND,ND
2017/06/11,14:40,0.76,ND,ND
2017/06/11,14:50,0.71,0.028,ND
2017/06/11,15:00,0.72,0.032,ND
2017/06/11,15:10,0.72,0.030,ND
2017/06/11,15:20,0.69,0.035,ND
2017/06/11,15:30,0.64,0.071,ND
2017/06/11,15:40,0.69,0.035,ND
2017/06/11,15:50,0.76,ND,ND
2017/06/11,16:00,0.74,ND,ND
2017/06/11,16:10,0.71,0.026,ND
2017/06/11,16:20,0.71,0.027,ND
2017/06/11,16:30,0.72,0.027,ND
2017/06/11,16:40,0.66,0.062,ND
2017/06/11,16:50,0.70,0.028,ND
2017/06/11,17:00,0.64,0.056,ND
2017/06/11,17:10,0.72,ND,ND
2017/06/11,17:20,0.72,ND,ND
2017/06/11,17:30,0.71,ND,10
2017/06/11,17:40,0.73,ND,ND
2017/06/11,17:50,0.73,ND,ND
2017/06/11,18:00,0.74,ND,ND
2017/06/11,18:10,0.68,0.060,ND
2017/06/11,18:20,0.73,0.058,ND
2017/06/11,18:30,0.71,0.063,ND
2017/06/11,18:40,0.70,0.061,ND
2017/06/11,18:50,0.75,0.032,ND
2017/06/11,19:00,0.77,0.031,ND
2017/06/11,19:10,0.75,0.039,ND
2017/06/11,19:20,0.74,0.035,ND
2017/06/11,19:30,0.74,0.046,ND
2017/06/11,19:40,0.72,0.055,ND
2017/06/11,19:50,0.73,0.049,ND
2017/06/11,20:00,0.73,0.048,ND
2017/06/11,20:10,0.75,0.049,ND
2017/06/11,20:20,0.79,0.050,ND
2017/06/11,20:30,0.78,0.052,ND
2017/06/11,20:40,0.79,0.048,ND
2017/06/11,20:50,0.75,0.051,ND
2017/06/11,21:00,0.76,0.052,ND
2017/06/11,21:10,0.73,0.055,ND
2017/06/11,21:20,0.70,0.065,ND
2017/06/11,21:30,0.68,0.096,ND
2017/06/11,21:40,0.71,0.071,ND
2017/06/11,21:50,0.69,0.076,ND
2017/06/11,22:00,0.71,0.072,ND
2017/06/11,22:10,0.71,0.074,8.9
2017/06/11,22:20,0.73,0.069,12
2017/06/11,22:30,0.73,0.062,10
2017/06/11,22:40,0.75,0.048,12
2017/06/11,22:50,0.75,0.045,12
2017/06/11,23:00,0.74,0.055,ND
2017/06/11,23:10,0.74,0.061,ND
2017/06/11,23:20,0.70,0.089,ND
2017/06/11,23:30,0.72,0.097,ND
2017/06/11,23:40,0.72,0.10,ND
2017/06/11,23:50,0.75,0.096,ND
